Home   Weather   Torreón   Past weeks

Flag for Mexico Past Weather in Torreón, Coahuila de Zaragoza, Mexico — Yesterday and Last 2 Weeks

Now
77 °F

Passing clouds.


Feels Like: 78 °F
Forecast: 62 / 93 °F
Wind: 5 mph from Northwest

Location: Torreon - Coah.

Current Time: Apr 24, 2017 at 2:46:19 am

Latest Report: Apr 23, 2017 at 10:42 pm


Visibility: 10 mi

Pressure: 30.05 "Hg (26.43 "Hg at 1120m altitude)

Humidity: 39%

Dew Point: 50 °F

Location of TorreónLocation

Past Weather in Torreón — Graph

°F

Torreón Temperature Yesterday

Maximum temperature yesterday: 86 °F (at 4:44 pm)
Minimum temperature yesterday: 68 °F (at 7:41 am)
Average temperature yesterday: 77 °F

High & Low Weather Summary for the Past Weeks

 TemperatureHumidityPressure
High99 °F (Apr 22, 3:48 pm)69% (Apr 23, 7:41 am)30.17 "Hg (Apr 23, 7:41 am)
Low64 °F (Apr 9, 7:44 am)2% (Apr 16, 5:40 pm)29.47 "Hg (Apr 22, 6:44 pm)
Average83 °F25%29.90 "Hg
* Reported Apr 8 10:51 pm — Apr 23 10:42 pm, Torreón, Weather by CustomWeather, © 2017

Note: Actual official high and low records may vary slightly from our data, if they occured in-between our weather recording intervals... More about our weather records

Advertising

Torreón Weather History for the Previous 24 Hours

Scroll right to see more
 ConditionsComfort  
Time TempWeatherWind HumidityBarometerVisibility
10:42 pm
Sun, Apr 23
77 °FPassing clouds.5 mph39%30.05 "Hg10 mi
9:44 pm81 °FOvercast.6 mph26%29.75 "Hg10 mi
8:40 pm79 °FMostly cloudy.18 mph32%30.00 "Hg8 mi
8:09 pm77 °FMostly cloudy.12 mph42%30.01 "Hg7 mi
7:45 pm82 °FMostly cloudy.30 mph28%29.99 "Hg1 mi
6:54 pm84 °FBroken clouds.3 mph31%29.68 "Hg8 mi
5:46 pm84 °FBroken clouds.5 mph31%29.93 "Hg10 mi
4:44 pm86 °FBroken clouds.No wind31%29.96 "Hg10 mi
3:52 pm84 °FScattered clouds.9 mph33%29.69 "Hg10 mi
2:41 pm81 °FSunny.5 mph37%30.05 "Hg10 mi
1:49 pm77 °FSunny.No wind42%30.09 "Hg12 mi
12:47 pm75 °FPassing clouds.8 mph47%29.85 "Hg12 mi
11:46 am73 °FScattered clouds.9 mph50%30.16 "Hg12 mi
10:47 am70 °FScattered clouds.6 mph57%30.17 "Hg12 mi
9:49 am70 °FScattered clouds.7 mph57%29.87 "Hg12 mi
8:42 am68 °FPassing clouds.7 mph64%30.15 "Hg10 mi
7:41 am68 °FScattered clouds.3 mph69%30.12 "Hg10 mi
4:43 am72 °FPassing clouds.No wind61%30.03 "Hg8 mi
Weather by CustomWeather, © 2017

See weather overviewHow to use our weather pages